Regional Weather Roundup
Issued by NWS Charleston, SC

Current Version | Previous Version | Graphics & Text | Print | Product List | Glossary On
Versions: 1 2 3 4 5 6 7 8 9 10 11 12 13 14 15 16 17 18 19 20 21 22 23 24 25 26 27 28 29 30 31 32 33 34 35 36 37 38 39 40 41 42 43 44 45 46 47 48 49 50
483 ASUS42 KCHS 301527 RWRCHS REGIONAL WEATHER ROUNDUP NATIONAL WEATHER SERVICE CHARLESTON SC 1100 AM EDT SUN APR 30 2017 NOTE: "FAIR" INDICATES FEW OR NO CLOUDS BELOW 12,000 FEET WITH NO SIGNIFICANT WEATHER AND/OR OBSTRUCTIONS TO VISIBILITY. NOT ALL STATIONS ARE QUALITY CONTROLLED. USE DATA WITH CAUTION... ESPECIALLY DEWPOINT OBSERVATIONS. SCZ027-030-031-034>040-042>050-301600- ...SOUTHEAST SOUTH CAROLINA... CITY SKY/WX TMP DP RH WIND PRES REMARKS N CHARLESTON PTSUNNY 81 68 64 S22 30.20R WATERFRONT PRK N/A 77 72 84 S12 30.18S JOHNS ISLAND PTSUNNY 81 72 74 SE12G18 30.20S PINOPOLIS N/A 79 72 78 VRB3 30.12R MONCKS CORNER PTSUNNY 81 68 65 S12G17 30.18F SUMMERVILLE FAIR 81 70 69 SE13G21 30.19S BEAUFORT MCAS MOSUNNY 80 74 81 S12G20 30.18R BEAUFORT ARPT PTSUNNY 79 72 78 S18G24 30.18R HILTON HEAD IS MOSUNNY 79 73 83 S10 30.19R WALTERBORO MOSUNNY 81 70 69 SE16G23 30.18F ALLENDALE FAIR 82 66 57 S15 30.14S ...SOUTHERN MIDLANDS AND PEE DEE... CITY SKY/WX TMP DP RH WIND PRES REMARKS GEORGETOWN PTSUNNY 79 68 69 S12G23 30.22S KINGSTREE FAIR 82 66 57 SE12G20 30.18F ORANGEBURG MOSUNNY 80 69 69 S13 30.15F BARNWELL FAIR 82 70 65 S13G18 30.15R AIKEN PTSUNNY 81 66 61 SE17 30.19R MANNING FAIR 79 68 69 MISG 30.18S COLUMBIA PTSUNNY 81 67 62 S14 30.15R SUMTER PTSUNNY 80 67 64 S12 30.15S FLORENCE PTSUNNY 81 70 69 S15 30.18F MYRTLE BEACH PTSUNNY 79 73 83 S14 30.22F N MYRTLE BEACH MOSUNNY 79 73 82 S9 30.22S $$ GAZ063-065-086>088-099>101-113>116-118-119-134>141-150-301600- ...SOUTHEAST GEORGIA... CITY SKY/WX TMP DP RH WIND PRES REMARKS SAVANNAH ARPT PTSUNNY 82 67 60 S18 30.17R HUNTER AAF MOSUNNY 80 75 85 SE13G18 30.16R FORT STEWART PTSUNNY 83 67 58 SE13G21 30.14R STATESBORO PTSUNNY 84 66 54 S12G20 30.14F SYLVANIA MOSUNNY N/A N/A N/A S10G17 30.16S CLAXTON FAIR 82 74 75 SE10G17 30.15S ...CSRA...CENTRAL AND FAR SOUTHEAST GEORGIA... CITY SKY/WX TMP DP RH WIND PRES REMARKS THOMSON MOSUNNY 79 66 64 W10G20 30.21R AUGUSTA-BUSH PTSUNNY 83 68 60 S14G23 30.13R AUGUSTA-DANIEL PTSUNNY 82 64 54 S12G21 30.15R SWAINSBORO CLOUDY 81 68 65 S10G17 30.16R VIDALIA CLOUDY 82 70 65 S8 30.15R EASTMAN FAIR 84 55 36 S14G22 30.16S HAZLEHURST PTSUNNY 84 72 67 S8G18 30.14S ALMA MOSUNNY 83 70 64 S10G17 30.16R WAYCROSS PTSUNNY 85 73 65 S12 30.15R HX 91 JESUP CLOUDY 81 66 61 S7 30.17R BAXLEY CLOUDY 81 73 78 S14 30.15R BRUNSWICK CLOUDY 82 73 74 S15G22 30.18R SAINT SIMONS MOSUNNY 81 72 74 SE14G21 30.16R $$ SCZ027-028-034-036>038-045-046-048>050-GAZ119-141-301600- ...LAKE AND SUPPLEMENTAL COASTAL OBSERVATIONS... STATION/POSITION TIME TEMP WIND PRES WAVE SWELL AIR SEA DIR/SP/G HT/PER HT/PER/DIR (UTC) (F) (DEG/KT/KT) (MB) (FT/S) (FT/S/D) WINYAH BAY 1445 78 160/ 13 1023.0S LAKE MURRAY 1450 76 170/ 10/ 15 1020.7S ACE BASIN NERRS 1445 78 160/ 3 1022.0S FORT PULASKI 1500 79 76 160/ 10/ 14 1022.5 SAPELO ISLAND 1445 81 160/ 14 1021.0S $$ ANZ835-935-AMZ111-154-330-350-352-354-370-450-454-472-301600- ...C-MAN AND BUOY OBSERVATIONS... STATION/POSITION TIME TEMP WIND PRES WAVE SWELL AIR SEA DIR/SP/G HT/PER HT/PER/DIR (UTC) (F) (DEG/KT/KT) (MB) (FT/S) (FT/S/D) BUOY 41004 1510 77 76 170/ 12/ 14 1023.3 BUOY 41008 1450 75 74 140/ 12/ 14 1020.8R 4/ 6 2/110/ 7 FOLLY BEACH CMAN 1500 76 150/ 10/ 11 1023.6R CAPERS NEARSHORE 1508 77 75 180/ 10/ 14 1022.8R FRIPP NEARSHORE 1508 75 75 150/ 8/ 12 1022.2R STATION/POSITION TIME TEMP WIND PRES WAVE SWELL AIR SEA DIR/SP/G HT/PER HT/PER/DIR (UTC) (F) (DEG/KT/KT) (MB) (FT/S) (FT/S/D) 5E ST. MARYS GA 1500 75 N/A 4/ 7 FRYING PAN BUOY 1510 76 74 180/ 14/ 16 1024.0 BUOY 41025 1450 77 75 220/ 12/ 14 1024.1R 3/ 4 2/160/ 7 CAPE LOOKOUT NC 1500 77 200/ 11/ 14 1023.6F BUOY 41002 1450 74 76 150/ 12/ 14 1025.3R 3/ 6 3/170/ 6 BUOY 41010 1510 77 78 130/ 17/ 21 1022.0 ST AUGUSTINE FL 1500 76 76 150/ 20/ 22 1021.5F $$

USA.gov is the U.S. government's official web portal to all federal, state and local government web resources and services.